Simultaneous Nadir Overpasses (SNOs) Predictions

Prediction of SNOs between METOP-B and TERRA Satellite Orbit:

Table of predicted SNOs for the next 14.0 days since TLE Epoch: 9/12/2015
Index Date (METOP-B) Time (METOP-B) Lat,Lon (METOP-B) SZA (METOP-B ) Date (TERRA) Time (TERRA) Lat,Lon (TERRA) SZA (TERRA ) Distance(km) Time Diff (sec)
1 09/13/2015 06:28:04 81.32, 130.36 80.34 09/13/2015 06:29:03 81.31, 130.22 80.35 2.41 59
2 09/13/2015 07:18:44 -81.32, -61.92 99.60 09/13/2015 07:18:29 -81.32, -61.88 99.60 0.73 15
3 09/16/2015 02:02:25 81.32,-163.18 81.45 09/16/2015 02:03:13 81.32,-163.18 81.47 0.18 48
4 09/16/2015 02:53:05 -81.32, 4.55 98.49 09/16/2015 02:52:40 -81.31, 4.36 98.53 3.38 25
5 09/18/2015 21:36:47 81.32, -96.75 82.56 09/18/2015 21:37:24 81.32, -96.67 82.59 1.46 37
6 09/18/2015 22:27:27 -81.32, 70.99 97.38 09/18/2015 22:26:51 -81.32, 70.90 97.41 1.61 36
7 09/21/2015 17:11:09 81.32, -30.35 83.67 09/21/2015 17:11:35 81.32, -30.23 83.70 2.06 26
8 09/21/2015 18:01:49 -81.32, 137.39 96.27 09/21/2015 18:01:02 -81.32, 137.36 96.30 0.80 47
9 09/24/2015 12:45:30 81.32, 36.02 84.79 09/24/2015 12:45:45 81.32, 36.13 84.80 1.86 15




NCC Satellite Simultaneous Nadir Overpasses (SNOs) Prediction Service
